Погода в Санкт-Иоганн-ин-Тироле

Австрия     47°31′19″N   12°25′53″E
В апреле 2022 года жителям России запретили посещать сайт meteo.paraplan.net по решению Генеральной прокуратуры. Аудитория сайта уменьшилась в 10 раз. Владельцы сайта не видят смысла в поддержке погодного сервера в таких условиях. Сайт будет закрыт в октябре.
темп.,
°C
ветер,
м/с
пор.,
м/с
влажн.,
%
обл.,
%
осадки,
мм/ч
давл.,
гПа
погр.,
м
30 сентября, пт
пт3023:00+4зсз1299100 3.0 1007190
02:00+4зюз1199100 4.9 1009256
05:00+4юз1199100 1.0 1009122
08:00+4ю1198100 1.1 1011116
11:00+5вюв0195100 0.0 1012303
14:00+7с1186100 0.1 1012470
17:00+7сз1194100 0.1 1012146
20:00+6ююз1195100 0.1 101420
1 октября, сб
сб123:00+5ююв119521 0.0 101411
02:00+4юз119776 0.0 101611
05:00+5ю119480 0.0 101628
08:00+7ююв118767 0.0 101632
11:00+11ссз1168100 0.0 1014635
14:00+12ссз2166100 0.0 1013884
17:00+9с2386100 0.1 1014335
20:00+7св1199100 4.8 101849
2 октября, вс
вс223:00+7всв0097100 3.8 101918
02:00+6юз1198100 9.4 102133
05:00+6ююз1298100 8.3 102261
08:00+6юз2298100 15.6 1025103
11:00+6ююз2397100 3.0 1026180
14:00+7ю1296100 3.7 102693
17:00+7ююз1197100 2.0 102539
20:00+7зсз2299100 5.7 102694
3 октября, пн
пн323:00+7юв2297100 7.3 102656
02:00+7ююв2398100 11.3 102584
05:00+7ююз2296100 1.4 102345
08:00+8ю119249 1.5 102323
11:00+9зсз1193100 0.5 102359
14:00+9з1298100 1.9 102384
17:00+8з1199100 3.1 102354
20:00+8юз1199100 6.1 102423
4 октября, вт
вт423:00+8ююз119694 0.3 102422
02:00+8ююв119487 0.3 102311
05:00+6ююв229529 0.0 102317
08:00+6ююв21945 0.0 102319
11:00+13в017699 0.0 1021453
14:00+16сз115834 0.0 1019866
17:00+15ссз2271100 0.0 1019232
20:00+9ю119499 0.0 102111